Regional Weather Roundup
Issued by NWS Columbia, SC

Home | Current Version | Previous Version | Text Only | Print | Product List | Glossary On
Versions: 1 2 3 4 5 6 7 8 9 10 11 12 13 14 15 16 17 18 19 20 21 22 23 24 25 26
000
ASUS42 KCAE 140310
RWRCAE
REGIONAL WEATHER ROUNDUP
NATIONAL WEATHER SERVICE COLUMBIA SC
1000 PM EST WED DEC 13 2017

NOTE: "FAIR" INDICATES FEW OR NO CLOUDS BELOW 12,000 FEET WITH NO
SIGNIFICANT WEATHER AND/OR OBSTRUCTIONS TO VISIBILITY.

NOT ALL STATIONS ARE QUALITY CONTROLLED BY THE NATIONAL
WEATHER SERVICE. USE DATA WITH CAUTION...ESPECIALLY
DEWPOINT OBSERVATIONS.

SCZ001>056-GAZ040-063>065-077-140400-
...UPSTATE SOUTH CAROLINA...

CITY           SKY/WX    TMP DP  RH WIND       PRES   REMARKS
ANDERSON       CLEAR     41  15  35 SW15      29.81F
LIBERTY        CLEAR     36  13  37 SW7       29.77F WCI  31
SPARTANBURG    CLEAR     37  12  35 SW10      29.77F WCI  30
CLEMSON        CLEAR     38  11  32 SW6       29.81F WCI  33
GREENVILLE     CLEAR     40  12  32 SW8       29.78F WCI  34
GREENWOOD      CLEAR     40  18  41 SW17G26   29.83S WCI  31
GREER          CLEAR     37  14  38 SW15      29.78F WCI  28
ROCK HILL      CLEAR     39  18  42 SW10      29.77F WCI  32
CHESTER        CLEAR     37  18  44 SW5       29.80S WCI  34
LAURENS        CLEAR     37  19  48 SW8       29.80F WCI  31


...CENTRAL SOUTH CAROLINA...

CITY           SKY/WX    TMP DP  RH WIND       PRES   REMARKS
COLUMBIA APT   CLEAR     43  21  41 SW7       29.84F
COLUMBIA OWENS CLEAR     43  19  38 SW8       29.86F
MCENTIRE ANGB  CLEAR     39  20  45 SW6       29.85F WCI  35
ORANGEBURG     CLEAR     40  24  53 SW10      29.89S WCI  33
SUMTER SHAW    CLEAR     41  21  44 SW12      29.83F
NEWBERRY       CLEAR     37  23  56 SW7       29.85S WCI  32
AIKEN          FAIR      39  21  48 SW10      29.88F WCI  32
BARNWELL         N/A     41  25  52 CALM      29.90S
MANNING        FAIR      43  -9  11 MISG      29.88S
CAMDEN         FAIR      41  18  38 SW6       29.83F
LANCASTER      CLEAR     37  18  44 SW10      29.80F WCI  30
WINNSBORO      CLEAR     43  19  39 SW10G16   29.81F


...EASTERN AND COASTAL SOUTH CAROLINA...

CITY           SKY/WX    TMP DP  RH WIND       PRES   REMARKS
MYRTLE BEACH   CLEAR     43  26  51 SW10      29.89
N MYRTLE BCH   CLEAR     45  26  47 SW14      29.88F
CONWAY         FAIR      37  28  70 S6        29.88F WCI  33
MARION         FAIR      36  23  60 SW6       29.86F WCI  31
HARTSVILLE     FAIR      36  21  55 SW6       29.82F WCI  31
FLORENCE       CLEAR     38  24  57 S7        29.85F WCI  33
DARLINGTON     CLEAR     39  23  52 S9        29.83F WCI  33
CHARLESTON APT CLEAR     37  32  82 SW8       29.91F WCI  31
MOUNT PLEASANT FAIR      45  34  65 S7        29.91F
WALTERBORO     CLEAR     39  27  60 SW6       29.93R WCI  35
BEAUFORT       CLEAR     45  32  60 S7        29.92F


...EASTERN GEORGIA...

CITY           SKY/WX    TMP DP  RH WIND       PRES   REMARKS
AUGUSTA BUSH F CLEAR     35  23  61 S9        29.87F WCI  28
AUGUSTA DANIEL CLEAR     45  19  35 SW12      29.86F
THOMSON        CLEAR     40  19  43 W5        29.91F
WASHINGTON     FAIR      37  19  48 SW3       29.85S
CLAXTON        FAIR      38  30  72 S3        29.93F
SYLVANIA       CLEAR     42  28  59 CALM      29.92S
STATESBORO     CLEAR     44  21  39 SW7       29.92F
SAVANNAH       CLEAR     42  27  55 SW8       29.95F


...SOUTHERN NORTH CAROLINA...

CITY           SKY/WX    TMP DP  RH WIND       PRES   REMARKS
CHARLOTTE      PTCLDY    41  17  38 SW15G25   29.75S
MONROE         CLEAR     40  19  43 SW17G25   29.75F WCI  31
WADESBORO      CLEAR     41  16  36 S8        29.78S
ASHEVILLE      CLEAR     32  14  47 CALM      29.71F

$$




USA.gov is the U.S. government's official web portal to all federal, state and local government web resources and services.